Time,TemperatureF,DewpointF,PressureIn,WindDirection,WindDirectionDegrees,WindSpeedMPH,WindSpeedGustMPH,Humidity,HourlyPrecipIn,Conditions,Clouds,dailyrainin,SoftwareType,DateUTC
2013-04-19 00:03:00,31.0,29.0,-100.00,NW,310,19.0,26.0,93,0.01,,,-99.99,,2013-04-19 05:03:00,
2013-04-19 00:11:00,31.0,29.0,-100.00,NW,310,22.0,26.0,93,0.08,,,-99.99,,2013-04-19 05:11:00,
2013-04-19 00:22:00,31.0,29.0,-100.00,NW,310,22.0,26.0,93,0.08,,,-99.99,,2013-04-19 05:22:00,
2013-04-19 00:32:00,31.0,29.0,-100.00,NW,310,20.0,26.0,93,0.08,,,-99.99,,2013-04-19 05:32:00,
2013-04-19 00:42:00,31.0,29.0,-100.00,WNW,300,17.0,27.0,93,0.07,,,-99.99,,2013-04-19 05:42:00,
2013-04-19 00:52:00,31.0,29.0,-100.00,WNW,295,21.0,27.0,93,0.08,,,-99.99,,2013-04-19 05:52:00,
2013-04-19 01:01:00,31.0,29.0,-100.00,WNW,295,21.0,27.0,93,0.08,,,-99.99,,2013-04-19 06:01:00,
2013-04-19 01:11:00,31.0,29.0,-100.00,NW,310,22.0,29.0,93,0.07,,,-99.99,,2013-04-19 06:11:00,
2013-04-19 01:22:00,31.0,29.0,-100.00,NW,315,21.0,29.0,92,0.08,,,-99.99,,2013-04-19 06:22:00,
2013-04-19 01:32:00,31.0,29.0,-100.00,NW,310,21.0,32.0,92,0.08,,,-99.99,,2013-04-19 06:32:00,
2013-04-19 01:42:00,31.0,29.0,-100.00,WNW,300,19.0,28.0,92,0.10,,,-99.99,,2013-04-19 06:42:00,
2013-04-19 01:52:00,31.0,29.0,-100.00,NW,305,21.0,27.0,92,0.08,,,-99.99,,2013-04-19 06:52:00,
2013-04-19 02:02:00,31.0,29.0,-100.00,NW,305,21.0,27.0,92,0.08,,,-99.99,,2013-04-19 07:02:00,
2013-04-19 02:12:00,31.0,29.0,-100.00,NW,310,21.0,28.0,92,0.08,,,-99.99,,2013-04-19 07:12:00,
2013-04-19 02:21:00,31.0,29.0,-100.00,WNW,300,21.0,30.0,92,0.07,,,-99.99,,2013-04-19 07:21:00,
2013-04-19 02:32:00,31.0,29.0,-100.00,NW,310,22.0,28.0,92,0.06,,,-99.99,,2013-04-19 07:32:00,
2013-04-19 02:42:00,31.0,29.0,-100.00,NW,310,22.0,28.0,92,0.06,,,-99.99,,2013-04-19 07:42:00,
2013-04-19 02:52:00,31.0,29.0,-100.00,WNW,300,19.0,26.0,92,0.07,,,-99.99,,2013-04-19 07:52:00,
2013-04-19 03:02:00,31.0,29.0,-100.00,WNW,300,19.0,26.0,92,0.07,,,-99.99,,2013-04-19 08:02:00,
2013-04-19 03:12:00,31.0,29.0,-100.00,NW,315,23.0,29.0,92,0.07,,,-99.99,,2013-04-19 08:12:00,
2013-04-19 03:21:00,31.0,29.0,-100.00,NW,310,29.0,33.0,91,0.07,,,-99.99,,2013-04-19 08:21:00,
2013-04-19 03:32:00,31.0,28.0,-100.00,NW,310,24.0,30.0,91,0.07,,,-99.99,,2013-04-19 08:32:00,
2013-04-19 03:42:00,31.0,28.0,-100.00,NW,310,24.0,30.0,91,0.07,,,-99.99,,2013-04-19 08:42:00,
2013-04-19 03:52:00,31.0,28.0,-100.00,NW,310,23.0,30.0,90,0.06,,,-99.99,,2013-04-19 08:52:00,
2013-04-19 04:01:00,31.0,28.0,-100.00,NW,310,23.0,30.0,90,0.07,,,-99.99,,2013-04-19 09:01:00,
2013-04-19 04:11:00,31.0,28.0,-100.00,NW,305,22.0,28.0,90,0.06,,,-99.99,,2013-04-19 09:11:00,
2013-04-19 04:21:00,31.0,28.0,-100.00,NW,305,22.0,28.0,90,0.06,,,-99.99,,2013-04-19 09:21:00,
2013-04-19 04:32:00,30.0,28.0,-100.00,WNW,295,22.0,29.0,90,0.11,,,-99.99,,2013-04-19 09:32:00,
2013-04-19 04:42:00,30.0,28.0,-100.00,WNW,295,22.0,29.0,90,0.11,,,-99.99,,2013-04-19 09:42:00,
2013-04-19 04:52:00,30.0,28.0,-100.00,NW,305,23.0,31.0,91,0.07,,,-99.99,,2013-04-19 09:52:00,
2013-04-19 05:02:00,30.0,28.0,-100.00,NW,305,23.0,31.0,91,0.07,,,-99.99,,2013-04-19 10:02:00,
2013-04-19 05:13:00,30.0,28.0,-100.00,NW,310,19.0,30.0,91,0.00,,,-99.99,,2013-04-19 10:13:00,
2013-04-19 05:23:00,30.0,28.0,-100.00,NW,310,22.0,28.0,91,0.00,,,-99.99,,2013-04-19 10:23:00,
2013-04-19 05:33:00,30.0,28.0,-100.00,NW,310,21.0,29.0,91,0.00,,,-99.99,,2013-04-19 10:33:00,
2013-04-19 05:42:00,30.0,28.0,-100.00,NW,310,21.0,29.0,91,0.00,,,-99.99,,2013-04-19 10:42:00,
2013-04-19 05:52:00,30.0,28.0,-100.00,NW,310,19.0,27.0,91,0.00,,,-99.99,,2013-04-19 10:52:00,
2013-04-19 06:02:00,30.0,28.0,-100.00,NW,310,21.0,29.0,91,0.00,,,-99.99,,2013-04-19 11:02:00,
2013-04-19 06:11:00,30.0,28.0,-100.00,NW,310,21.0,29.0,91,0.00,,,-99.99,,2013-04-19 11:11:00,
2013-04-19 06:22:00,30.0,28.0,-100.00,WNW,300,21.0,27.0,91,0.00,,,-99.99,,2013-04-19 11:22:00,
2013-04-19 06:32:00,30.0,28.0,-100.00,WNW,300,23.0,29.0,91,0.00,,,-99.99,,2013-04-19 11:32:00,
2013-04-19 06:42:00,30.0,28.0,-100.00,WNW,300,18.0,29.0,91,0.00,,,-99.99,,2013-04-19 11:42:00,
2013-04-19 06:52:00,29.0,27.0,-100.00,NW,310,24.0,28.0,91,0.00,,,-99.99,,2013-04-19 11:52:00,
2013-04-19 07:02:00,29.0,27.0,-100.00,NW,310,24.0,28.0,91,0.00,,,-99.99,,2013-04-19 12:02:00,
2013-04-19 07:12:00,29.0,27.0,-100.00,NW,310,21.0,29.0,91,0.00,,,-99.99,,2013-04-19 12:12:00,
2013-04-19 07:22:00,29.0,27.0,-100.00,NW,310,22.0,27.0,91,0.00,,,-99.99,,2013-04-19 12:22:00,
2013-04-19 07:32:00,29.0,27.0,-100.00,NW,310,22.0,27.0,90,0.00,,,-99.99,,2013-04-19 12:32:00,
2013-04-19 07:42:00,29.0,27.0,-100.00,NW,310,22.0,27.0,90,0.00,,,-99.99,,2013-04-19 12:42:00,
2013-04-19 07:52:00,29.0,27.0,-100.00,NW,310,23.0,31.0,89,0.00,,,-99.99,,2013-04-19 12:52:00,
2013-04-19 08:01:00,29.0,27.0,-100.00,NW,310,23.0,31.0,89,0.00,,,-99.99,,2013-04-19 13:01:00,
2013-04-19 08:11:00,29.0,27.0,-100.00,NW,310,22.0,27.0,89,0.00,,,-99.99,,2013-04-19 13:11:00,
2013-04-19 08:21:00,29.0,27.0,-100.00,NW,310,22.0,29.0,89,0.00,,,-99.99,,2013-04-19 13:21:00,
2013-04-19 08:32:00,29.0,26.0,-100.00,WNW,300,22.0,31.0,88,0.00,,,-99.99,,2013-04-19 13:32:00,
2013-04-19 08:42:00,29.0,26.0,-100.00,WNW,300,22.0,31.0,88,0.00,,,-99.99,,2013-04-19 13:42:00,
2013-04-19 08:52:00,29.0,26.0,-100.00,NW,305,26.0,32.0,88,0.00,,,-99.99,,2013-04-19 13:52:00,
2013-04-19 09:01:00,29.0,26.0,-100.00,NW,310,19.0,32.0,88,0.00,,,-99.99,,2013-04-19 14:01:00,
2013-04-19 09:11:00,29.0,26.0,-100.00,WNW,295,17.0,24.0,88,0.00,,,-99.99,,2013-04-19 14:11:00,
2013-04-19 09:21:00,29.0,26.0,-100.00,WNW,300,21.0,24.0,88,0.00,,,-99.99,,2013-04-19 14:21:00,
2013-04-19 09:32:00,29.0,26.0,-100.00,NW,305,21.0,26.0,88,0.00,,,-99.99,,2013-04-19 14:32:00,
2013-04-19 09:42:00,29.0,26.0,-100.00,NW,305,21.0,26.0,88,0.00,,,-99.99,,2013-04-19 14:42:00,
2013-04-19 09:52:00,29.0,26.0,-100.00,WNW,300,20.0,30.0,86,0.00,,,-99.99,,2013-04-19 14:52:00,
2013-04-19 10:01:00,30.0,26.0,-100.00,NW,305,18.0,27.0,86,0.00,,,-99.99,,2013-04-19 15:01:00,
2013-04-19 10:12:00,29.0,26.0,-100.00,WNW,300,21.0,27.0,86,0.00,,,-99.99,,2013-04-19 15:12:00,
2013-04-19 10:21:00,30.0,26.0,-100.00,WNW,300,21.0,30.0,86,0.00,,,-99.99,,2013-04-19 15:21:00,
2013-04-19 10:33:00,30.0,26.0,-100.00,NW,305,22.0,32.0,85,0.00,,,-99.99,,2013-04-19 15:33:00,
2013-04-19 10:43:00,31.0,27.0,-100.00,NW,310,23.0,30.0,84,0.07,,,-99.99,,2013-04-19 15:43:00,
2013-04-19 10:52:00,31.0,27.0,-100.00,WNW,300,24.0,29.0,84,0.07,,,-99.99,,2013-04-19 15:52:00,
2013-04-19 11:03:00,31.0,27.0,-100.00,WNW,300,24.0,29.0,84,0.07,,,-99.99,,2013-04-19 16:03:00,
2013-04-19 11:12:00,32.0,27.0,-100.00,NW,310,26.0,32.0,84,0.00,,,-99.99,,2013-04-19 16:12:00,
2013-04-19 11:23:00,31.0,27.0,-100.00,WNW,300,23.0,30.0,84,0.00,,,-99.99,,2013-04-19 16:23:00,
2013-04-19 11:32:00,31.0,27.0,-100.00,WNW,300,24.0,30.0,84,0.06,,,-99.99,,2013-04-19 16:32:00,
2013-04-19 11:42:00,31.0,28.0,-100.00,WNW,300,23.0,29.0,85,0.06,,,-99.99,,2013-04-19 16:42:00,
2013-04-19 11:52:00,31.0,27.0,-100.00,NW,310,24.0,29.0,85,0.07,,,-99.99,,2013-04-19 16:52:00,
2013-04-19 12:02:00,32.0,28.0,-100.00,NW,310,21.0,29.0,85,0.07,,,-99.99,,2013-04-19 17:02:00,
2013-04-19 12:12:00,32.0,28.0,-100.00,NW,310,25.0,31.0,85,0.06,,,-99.99,,2013-04-19 17:12:00,
2013-04-19 12:21:00,32.0,28.0,-100.00,NW,310,26.0,34.0,84,0.06,,,-99.99,,2013-04-19 17:21:00,
2013-04-19 12:33:00,34.0,29.0,-100.00,NW,310,25.0,33.0,83,0.04,,,-99.99,,2013-04-19 17:33:00,
2013-04-19 12:42:00,32.0,27.0,-100.00,NW,315,28.0,37.0,82,0.07,,,-99.99,,2013-04-19 17:42:00,
2013-04-19 12:52:00,33.0,27.0,-100.00,NW,310,26.0,34.0,80,0.04,,,-99.99,,2013-04-19 17:52:00,
2013-04-19 13:02:00,33.0,27.0,-100.00,NW,310,26.0,34.0,80,0.04,,,-99.99,,2013-04-19 18:02:00,
2013-04-19 13:13:00,34.0,28.0,-100.00,NW,310,27.0,33.0,78,0.00,,,-99.99,,2013-04-19 18:13:00,
2013-04-19 13:22:00,33.0,27.0,-100.00,NW,310,24.0,35.0,77,0.00,,,-99.99,,2013-04-19 18:22:00,
2013-04-19 13:33:00,32.0,25.0,-100.00,NW,310,26.0,34.0,74,0.00,,,-99.99,,2013-04-19 18:33:00,
2013-04-19 13:42:00,32.0,25.0,-100.00,NW,310,26.0,34.0,74,0.00,,,-99.99,,2013-04-19 18:42:00,
2013-04-19 13:52:00,33.0,26.0,-100.00,NW,320,21.0,32.0,75,0.00,,,-99.99,,2013-04-19 18:52:00,
2013-04-19 14:01:00,33.0,26.0,-100.00,NW,320,21.0,32.0,75,0.00,,,-99.99,,2013-04-19 19:01:00,
2013-04-19 14:11:00,33.0,25.0,-100.00,NW,320,26.0,32.0,73,0.00,,,-99.99,,2013-04-19 19:11:00,
2013-04-19 14:21:00,33.0,25.0,-100.00,NW,310,22.0,35.0,74,0.06,,,-99.99,,2013-04-19 19:21:00,
2013-04-19 14:32:00,34.0,27.0,-100.00,NW,305,20.0,32.0,74,0.00,,,-99.99,,2013-04-19 19:32:00,
2013-04-19 14:41:00,34.0,27.0,-100.00,NW,305,20.0,32.0,74,0.00,,,-99.99,,2013-04-19 19:41:00,
2013-04-19 14:52:00,34.0,27.0,-100.00,NW,310,20.0,31.0,74,0.00,,,-99.99,,2013-04-19 19:52:00,
2013-04-19 15:02:00,34.0,27.0,-100.00,NW,310,20.0,31.0,74,0.00,,,-99.99,,2013-04-19 20:02:00,
2013-04-19 15:11:00,33.0,26.0,-100.00,NW,310,23.0,30.0,74,0.00,,,-99.99,,2013-04-19 20:11:00,
2013-04-19 15:22:00,33.0,26.0,-100.00,WNW,295,23.0,29.0,73,0.00,,,-99.99,,2013-04-19 20:22:00,
2013-04-19 15:32:00,34.0,26.0,-100.00,NW,310,27.0,32.0,71,0.00,,,-99.99,,2013-04-19 20:32:00,
2013-04-19 15:41:00,34.0,26.0,-100.00,NW,310,27.0,32.0,71,0.00,,,-99.99,,2013-04-19 20:41:00,
2013-04-19 15:51:00,34.0,26.0,-100.00,WNW,295,23.0,35.0,72,0.00,,,-99.99,,2013-04-19 20:51:00,
2013-04-19 16:01:00,34.0,26.0,-100.00,WNW,295,23.0,35.0,72,0.00,,,-99.99,,2013-04-19 21:01:00,
2013-04-19 16:11:00,33.0,25.0,-100.00,NW,310,24.0,32.0,71,0.00,,,-99.99,,2013-04-19 21:11:00,
2013-04-19 16:21:00,34.0,25.0,-100.00,NW,310,25.0,32.0,71,0.00,,,-99.99,,2013-04-19 21:21:00,
2013-04-19 16:32:00,33.0,25.0,-100.00,NW,310,24.0,30.0,71,0.04,,,-99.99,,2013-04-19 21:32:00,
2013-04-19 16:42:00,33.0,25.0,-100.00,NW,310,24.0,30.0,71,0.04,,,-99.99,,2013-04-19 21:42:00,
2013-04-19 16:52:00,34.0,26.0,-100.00,NW,310,26.0,33.0,70,0.06,,,-99.99,,2013-04-19 21:52:00,
2013-04-19 17:02:00,34.0,26.0,-100.00,NW,310,26.0,33.0,70,0.06,,,-99.99,,2013-04-19 22:02:00,
2013-04-19 17:12:00,34.0,25.0,-100.00,NW,310,26.0,32.0,68,0.00,,,-99.99,,2013-04-19 22:12:00,
2013-04-19 17:22:00,34.0,26.0,-100.00,WNW,300,22.0,32.0,70,0.04,,,-99.99,,2013-04-19 22:22:00,
2013-04-19 17:33:00,34.0,25.0,-100.00,NW,310,24.0,31.0,68,0.00,,,-99.99,,2013-04-19 22:33:00,
2013-04-19 17:42:00,34.0,25.0,-100.00,NW,310,24.0,31.0,68,0.00,,,-99.99,,2013-04-19 22:42:00,
2013-04-19 17:52:00,35.0,26.0,-100.00,NW,310,22.0,28.0,70,0.00,,,-99.99,,2013-04-19 22:52:00,
2013-04-19 18:02:00,35.0,26.0,-100.00,NW,310,22.0,28.0,70,0.00,,,-99.99,,2013-04-19 23:02:00,
2013-04-19 18:11:00,34.0,26.0,-100.00,WNW,300,23.0,29.0,69,0.00,,,-99.99,,2013-04-19 23:11:00,
2013-04-19 18:22:00,34.0,26.0,-100.00,NW,310,18.0,26.0,70,0.00,,,-99.99,,2013-04-19 23:22:00,
2013-04-19 18:32:00,34.0,26.0,-100.00,NW,305,19.0,27.0,70,0.00,,,-99.99,,2013-04-19 23:32:00,
2013-04-19 18:42:00,35.0,27.0,-100.00,NW,305,18.0,26.0,71,0.00,,,-99.99,,2013-04-19 23:42:00,
2013-04-19 18:52:00,34.0,25.0,-100.00,NW,310,20.0,29.0,70,0.00,,,-99.99,,2013-04-19 23:52:00,
2013-04-19 19:02:00,34.0,25.0,-100.00,NW,310,20.0,29.0,70,0.00,,,-99.99,,2013-04-20 00:02:00,
2013-04-19 19:12:00,33.0,25.0,-100.00,WNW,295,19.0,26.0,71,0.00,,,-99.99,,2013-04-20 00:12:00,
2013-04-19 19:21:00,33.0,25.0,-100.00,WNW,290,16.0,27.0,72,0.00,,,-99.99,,2013-04-20 00:21:00,
2013-04-19 19:32:00,33.0,25.0,-100.00,WNW,290,15.0,26.0,73,0.00,,,-99.99,,2013-04-20 00:32:00,
2013-04-19 19:41:00,33.0,25.0,-100.00,WNW,290,15.0,26.0,73,0.00,,,-99.99,,2013-04-20 00:41:00,
2013-04-19 19:51:00,32.0,25.0,-100.00,WNW,300,17.0,24.0,75,0.00,,,-99.99,,2013-04-20 00:51:00,
2013-04-19 20:01:00,32.0,25.0,-100.00,WNW,300,17.0,24.0,75,0.00,,,-99.99,,2013-04-20 01:01:00,
2013-04-19 20:11:00,32.0,25.0,-100.00,WNW,290,14.0,22.0,76,0.00,,,-99.99,,2013-04-20 01:11:00,
2013-04-19 20:21:00,31.0,26.0,-100.00,WNW,295,16.0,21.0,77,0.00,,,-99.99,,2013-04-20 01:21:00,
2013-04-19 20:32:00,31.0,26.0,-100.00,NW,310,18.0,23.0,79,0.00,,,-99.99,,2013-04-20 01:32:00,
2013-04-19 20:42:00,31.0,26.0,-100.00,NW,310,18.0,23.0,79,0.00,,,-99.99,,2013-04-20 01:42:00,
2013-04-19 20:52:00,31.0,25.0,-100.00,NW,305,17.0,23.0,80,0.00,,,-99.99,,2013-04-20 01:52:00,
2013-04-19 21:01:00,31.0,25.0,-100.00,NW,305,17.0,23.0,80,0.00,,,-99.99,,2013-04-20 02:01:00,
2013-04-19 21:11:00,30.0,26.0,-100.00,WNW,300,13.0,21.0,81,0.00,,,-99.99,,2013-04-20 02:11:00,
2013-04-19 21:21:00,30.0,26.0,-100.00,WNW,295,14.0,19.0,82,0.00,,,-99.99,,2013-04-20 02:21:00,
2013-04-19 21:32:00,30.0,26.0,-100.00,WNW,290,12.0,19.0,83,0.00,,,-99.99,,2013-04-20 02:32:00,
2013-04-19 21:42:00,30.0,26.0,-100.00,WNW,285,12.0,16.0,84,0.00,,,-99.99,,2013-04-20 02:42:00,
2013-04-19 21:52:00,30.0,26.0,-100.00,WNW,295,12.0,16.0,84,0.00,,,-99.99,,2013-04-20 02:52:00,
2013-04-19 22:01:00,30.0,26.0,-100.00,WNW,295,12.0,16.0,84,0.00,,,-99.99,,2013-04-20 03:01:00,
2013-04-19 22:11:00,29.0,26.0,-100.00,WNW,295,12.0,17.0,85,0.00,,,-99.99,,2013-04-20 03:11:00,
2013-04-19 22:21:00,29.0,26.0,-100.00,WNW,290,13.0,16.0,85,0.00,,,-99.99,,2013-04-20 03:21:00,
2013-04-19 22:33:00,29.0,26.0,-100.00,WNW,295,12.0,17.0,85,0.00,,,-99.99,,2013-04-20 03:33:00,
2013-04-19 22:43:00,29.0,26.0,-100.00,WNW,295,11.0,16.0,85,0.00,,,-99.99,,2013-04-20 03:43:00,
2013-04-19 22:52:00,29.0,25.0,-100.00,WNW,290,11.0,15.0,85,0.00,,,-99.99,,2013-04-20 03:52:00,
2013-04-19 23:03:00,29.0,25.0,-100.00,WNW,290,11.0,15.0,85,0.00,,,-99.99,,2013-04-20 04:03:00,
2013-04-19 23:12:00,29.0,25.0,-100.00,WNW,290,11.0,15.0,85,0.00,,,-99.99,,2013-04-20 04:12:00,
2013-04-19 23:23:00,29.0,25.0,-100.00,WNW,290,12.0,17.0,86,0.00,,,-99.99,,2013-04-20 04:23:00,
2013-04-19 23:32:00,29.0,25.0,-100.00,WNW,295,11.0,16.0,86,0.00,,,-99.99,,2013-04-20 04:32:00,
2013-04-19 23:43:00,29.0,25.0,-100.00,WNW,295,13.0,20.0,86,0.00,,,-99.99,,2013-04-20 04:43:00,
2013-04-19 23:53:00,29.0,25.0,-100.00,WNW,300,12.0,16.0,86,0.00,,,-99.99,,2013-04-20 04:53:00,